Weather History for North Bend, OR

Change the Weather History Date:

Sunday, October 16, 2011

  Actual Average Record
Temperature  
Mean Temperature 54 °F 54 °F  
Max Temperature 61 °F 61 °F 84 °F (1960)
Min Temperature 46 °F 46 °F 35 °F (1949)
Degree Days  
Heating Degree Days 11 12  
Month to date heating degree days 139 170  
Since 1 July heating degree days 690 778  
Cooling Degree Days 0 0  
Month to date cooling degree days 0 0  
Year to date cooling degree days 1 2  
Growing Degree Days 8 (Base 50)    
Moisture  
Dew Point 50 °F    
Average Humidity 75    
Maximum Humidity 86    
Minimum Humidity 64    
Precipitation  
Precipitation 0.00 in 0.15 in 1.05 in (1947)
Month to date precipitation 2.26 1.77  
Year to date precipitation 30.44 40.59  
Sea Level Pressure  
Sea Level Pressure 30.13 in    
Wind  
Wind Speed 11 mph (North)    
Max Wind Speed 22 mph    
Max Gust Speed 29 mph    
Visibility 10 miles    
Events      
T = Trace of Precipitation, MM = Missing Value Source: NWS Daily Summary

Daily Weather History Graph

Daily Weather History Graph

Search for Another Location

Airport:

Trip Planner

Search our weather history database for the weather conditions in past years. The results will help you decide how hot, cold, wet, or windy it might be!

Date:

Astronomy

Oct. 16, 2011 Rise Set
Actual Time 7:31 AM PDT 6:32 PM PDT
Civil Twilight 7:03 AM PDT 7:01 PM PDT
Nautical Twilight 6:29 AM PDT 7:34 PM PDT
Astronomical Twilight 5:56 AM PDT 8:07 PM PDT
Moon 9:15 PM PDT (10/16) 12:01 PM PDT (10/16)
Length of Visible Light 11h 58m
Length of Day
11h 00m
Waning Gibbous, 81% of the Moon is Illuminated
Oct 16
Waning Gibbous
Oct 19
Last Quarter
Oct 26
New
Nov 2
First Quarter
Nov 10
Full

Hourly Weather History & Observations

Time (PDT) Temp. Dew Point Humidity Pressure Visibility Wind Dir Wind Speed Gust Speed Precip Events Conditions
12:15 AM 57.2 °F 51.8 °F 82% 30.02 in 10.0 mi North 11.5 mph 17.3 mph N/A   Mostly Cloudy
12:35 AM 57.2 °F 51.8 °F 82% 30.02 in 10.0 mi North 9.2 mph - N/A   Overcast
12:55 AM 57.2 °F 51.8 °F 82% 30.02 in 10.0 mi NNE 6.9 mph - N/A   Overcast
1:15 AM 55.4 °F 51.8 °F 88% 30.02 in 10.0 mi Calm Calm - N/A   Overcast
1:35 AM 55.4 °F 50.0 °F 82% 30.02 in 10.0 mi Calm Calm - N/A   Mostly Cloudy
1:55 AM 55.4 °F 50.0 °F 82% 30.02 in 10.0 mi ESE 4.6 mph - N/A   Overcast
2:15 AM 55.4 °F 51.8 °F 88% 30.03 in 10.0 mi Calm Calm - N/A   Mostly Cloudy
2:35 AM 55.4 °F 51.8 °F 88% 30.04 in 9.0 mi NW 8.1 mph - N/A   Overcast
2:55 AM 55.4 °F 51.8 °F 88% 30.05 in 10.0 mi NNW 6.9 mph - N/A   Overcast
3:15 AM 55.4 °F 51.8 °F 88% 30.06 in 10.0 mi NNW 5.8 mph - N/A   Overcast
3:35 AM 55.4 °F 51.8 °F 88% 30.06 in 10.0 mi NNW 4.6 mph - N/A   Overcast
3:55 AM 55.4 °F 50.0 °F 82% 30.06 in 10.0 mi North 3.5 mph - N/A   Overcast
4:15 AM 55.4 °F 51.8 °F 88% 30.06 in 10.0 mi NNE 6.9 mph - N/A   Overcast
4:35 AM 55.4 °F 51.8 °F 88% 30.06 in 10.0 mi NNE 5.8 mph - N/A   Overcast
4:55 AM 57.2 °F 51.8 °F 82% 30.07 in 8.0 mi NNE 6.9 mph - N/A   Overcast
5:15 AM 57.2 °F 51.8 °F 82% 30.08 in 8.0 mi NNE 6.9 mph - N/A   Overcast
5:35 AM 57.2 °F 51.8 °F 82% 30.08 in 8.0 mi North 6.9 mph - N/A   Overcast
5:55 AM 55.4 °F 51.8 °F 88% 30.09 in 9.0 mi North 9.2 mph - N/A   Overcast
6:15 AM 55.4 °F 50.0 °F 82% 30.09 in 8.0 mi North 6.9 mph - N/A   Overcast
6:35 AM 55.4 °F 50.0 °F 82% 30.10 in 9.0 mi North 6.9 mph - N/A   Overcast
6:55 AM 55.4 °F 50.0 °F 82% 30.10 in 10.0 mi North 8.1 mph - N/A   Overcast
7:15 AM 55.4 °F 50.0 °F 82% 30.11 in 10.0 mi North 8.1 mph - N/A   Overcast
7:35 AM 55.4 °F 50.0 °F 82% 30.11 in 10.0 mi North 10.4 mph - N/A   Overcast
7:55 AM 55.4 °F 50.0 °F 82% 30.12 in 10.0 mi North 6.9 mph - N/A   Overcast
8:15 AM 55.4 °F 50.0 °F 82% 30.13 in 10.0 mi North 4.6 mph - N/A   Overcast
8:35 AM 55.4 °F 50.0 °F 82% 30.14 in 10.0 mi North 5.8 mph - N/A   Overcast
8:55 AM 55.4 °F 50.0 °F 82% 30.15 in 10.0 mi North 10.4 mph - N/A   Overcast
9:15 AM 57.2 °F 48.2 °F 72% 30.15 in 10.0 mi North 10.4 mph - N/A   Overcast
9:35 AM 57.2 °F 48.2 °F 72% 30.16 in 10.0 mi North 11.5 mph - N/A   Mostly Cloudy
9:55 AM 57.2 °F 50.0 °F 77% 30.17 in 10.0 mi North 13.8 mph - N/A   Scattered Clouds
10:15 AM 57.2 °F 48.2 °F 72% 30.17 in 10.0 mi North 12.7 mph - N/A   Partly Cloudy
10:35 AM 57.2 °F 48.2 °F 72% 30.18 in 10.0 mi North 10.4 mph - N/A   Partly Cloudy
10:55 AM 60.8 °F 48.2 °F 63% 30.19 in 10.0 mi North 13.8 mph 18.4 mph N/A   Mostly Cloudy
11:15 AM 60.8 °F 48.2 °F 63% 30.19 in 10.0 mi NNW 16.1 mph - N/A   Scattered Clouds
11:35 AM 60.8 °F 48.2 °F 63% 30.19 in 10.0 mi North 12.7 mph - N/A   Clear
11:55 AM 60.8 °F 48.2 °F 63% 30.20 in 10.0 mi North 13.8 mph - N/A   Partly Cloudy
12:15 PM 60.8 °F 48.2 °F 63% 30.20 in 10.0 mi NNW 15.0 mph - N/A   Partly Cloudy
12:35 PM 60.8 °F 48.2 °F 63% 30.21 in 10.0 mi North 16.1 mph - N/A   Clear
12:55 PM 60.8 °F 48.2 °F 63% 30.21 in 10.0 mi North 18.4 mph 21.9 mph N/A   Clear
1:15 PM 60.8 °F 48.2 °F 63% 30.20 in 10.0 mi North 18.4 mph - N/A   Clear
1:35 PM 60.8 °F 48.2 °F 63% 30.21 in 10.0 mi North 19.6 mph - N/A   Clear
1:55 PM 60.8 °F 48.2 °F 63% 30.21 in 10.0 mi North 19.6 mph - N/A   Clear
2:15 PM 60.8 °F 48.2 °F 63% 30.21 in 10.0 mi North 19.6 mph 25.3 mph N/A   Clear
2:35 PM 60.8 °F 48.2 °F 63% 30.20 in 10.0 mi North 20.7 mph 26.5 mph N/A   Clear
2:55 PM 60.8 °F 48.2 °F 63% 30.21 in 10.0 mi North 20.7 mph 28.8 mph N/A   Clear
3:15 PM 60.8 °F 48.2 °F 63% 30.20 in 10.0 mi North 23.0 mph 26.5 mph N/A   Clear
3:35 PM 59.0 °F 48.2 °F 67% 30.21 in 10.0 mi North 21.9 mph - N/A   Clear
3:55 PM 59.0 °F 48.2 °F 67% 30.21 in 10.0 mi North 21.9 mph 28.8 mph N/A   Clear
4:15 PM 59.0 °F 48.2 °F 67% 30.22 in 10.0 mi North 23.0 mph - N/A   Clear
4:35 PM 59.0 °F 46.4 °F 63% 30.22 in 10.0 mi North 21.9 mph - N/A   Clear
4:55 PM 57.2 °F 46.4 °F 67% 30.22 in 10.0 mi North 20.7 mph 24.2 mph N/A   Clear
5:15 PM 57.2 °F 46.4 °F 67% 30.22 in 10.0 mi North 19.6 mph 25.3 mph N/A   Clear
5:35 PM 57.2 °F 46.4 °F 67% 30.22 in 10.0 mi North 19.6 mph 25.3 mph N/A   Clear
5:55 PM 57.2 °F 46.4 °F 67% 30.23 in 10.0 mi North 18.4 mph - N/A   Clear
6:15 PM 55.4 °F 46.4 °F 72% 30.23 in 10.0 mi North 11.5 mph - N/A   Clear
6:35 PM 55.4 °F 44.6 °F 67% 30.23 in 10.0 mi North 9.2 mph - N/A   Clear
6:55 PM 55.4 °F 44.6 °F 67% 30.23 in 10.0 mi North 5.8 mph - N/A   Clear
7:15 PM 53.6 °F 44.6 °F 72% 30.23 in 10.0 mi North 6.9 mph - N/A   Clear
7:35 PM 53.6 °F 44.6 °F 72% 30.24 in 10.0 mi North 4.6 mph - N/A   Clear
7:55 PM 53.6 °F 44.6 °F 72% 30.24 in 10.0 mi North - - N/A   Clear
8:15 PM 51.8 °F 44.6 °F 76% 30.24 in 10.0 mi North 8.1 mph - N/A   Clear
8:35 PM 51.8 °F 44.6 °F 76% 30.25 in 10.0 mi North 6.9 mph - N/A   Clear
8:55 PM 51.8 °F 44.6 °F 76% 30.25 in 10.0 mi North 6.9 mph - N/A   Clear
9:15 PM 51.8 °F 44.6 °F 76% 30.26 in 10.0 mi North 4.6 mph - N/A   Clear
9:35 PM 51.8 °F 44.6 °F 76% 30.27 in 10.0 mi North 5.8 mph - N/A   Clear
9:55 PM 51.8 °F 44.6 °F 76% 30.27 in 10.0 mi NNE 8.1 mph - N/A   Clear
10:15 PM 51.8 °F 44.6 °F 76% 30.27 in 10.0 mi NNE 6.9 mph - N/A   Clear
10:35 PM 50.0 °F 44.6 °F 82% 30.28 in 10.0 mi NE 6.9 mph - N/A   Clear
10:55 PM 50.0 °F 44.6 °F 82% 30.29 in 10.0 mi Calm Calm - N/A   Clear
11:15 PM 48.2 °F 42.8 °F 82% 30.28 in 2.5 mi SE 4.6 mph - N/A   Clear
11:35 PM 48.2 °F 42.8 °F 82% 30.29 in 0.5 mi Calm Calm - N/A   Scattered Clouds
11:55 PM 46.4 °F 41.0 °F 81% 30.30 in 0.2 mi Calm Calm - N/A   Mostly Cloudy